Home > Weather > Sosnowiec > Past weeks

Flag for Poland Weather for the Past 2 Weeks in Sosnowiec, Poland

Now
39 °F

Light rain. Broken clouds.


Feels Like: 31 °F
Forecast: 35 / 40 °F
Wind: 14 mph from Northwest

Location: Katowice Airport

Current Time: Feb 10, 2016 at 10:12:01 AM

Latest Report: Feb 10, 2016 at 10:00 AM


Visibility: N/A

Pressure: 29.27 "Hg

Humidity: 87%

Dew point: 36 °F

Location of SosnowiecLocation

Historic Weather in Sosnowiec — Graph

°F

Sosnowiec Temperature Yesterday

Maximum temperature yesterday: 54 °F (at 1:30 PM)
Minimum temperature yesterday: 43 °F (at 6:00 AM)
Average temperature yesterday: 48 °F

High & Low Weather Summary for the Past Weeks

 TemperatureHumidityPressure
High54 °F (Jan 30, 2:00 PM)100% (Jan 26, 9:00 AM)30.30 "Hg (Jan 26, 9:00 AM)
Low28 °F (Jan 29, 12:30 AM)44% (Jan 30, 2:30 PM)29.24 "Hg (Feb 10, 3:30 AM)
Average41 °F78%29.94 "Hg
* Reported Jan 26 9:00 AM — Feb 10 9:00 AM, Sosnowiec, Weather by CustomWeather, © 2016

Note: Actual official high and low records may vary slightly from our data, if they occured in-between our weather recording intervals... More about our weather records

Advertising

Sosnowiec Weather History for the Previous 24 Hours

 ConditionsComfort  
Time TempWeatherWind HumidityBarometerVisibility
9:00 AM
Wed, Feb 10
41 °FLight rain. Broken clouds.6 mph93%29.24 "Hg6 mi
8:30 AM41 °FLight rain. Broken clouds.9 mph100%29.24 "Hg5 mi
8:00 AM41 °FLight rain. Broken clouds.7 mph100%29.24 "Hg5 mi
7:30 AM43 °FRain. Broken clouds.8 mph93%29.24 "Hg4 mi
7:00 AM43 °FRain. Partly cloudy.10 mph93%29.24 "Hg4 mi
6:30 AM45 °FRain. Passing clouds.3 mph93%29.24 "Hg4 mi
6:00 AM45 °FRain. Passing clouds.6 mph93%29.24 "Hg4 mi
5:30 AM45 °FLight rain. Passing clouds.6 mph93%29.24 "HgN/A
5:00 AM46 °FLight rain. Passing clouds.9 mph82%29.24 "HgN/A
4:00 AM48 °FLight rain. Passing clouds.13 mph76%29.24 "HgN/A
3:30 AM48 °FLight rain. Passing clouds.8 mph76%29.24 "HgN/A
3:00 AM46 °FLight rain. Partly cloudy.6 mph82%29.27 "HgN/A
2:30 AM48 °FLight rain. Partly cloudy.8 mph71%29.27 "HgN/A
2:00 AM50 °FLight rain. Overcast.7 mph67%29.27 "HgN/A
1:30 AM50 °FLight rain. Passing clouds.8 mph62%29.30 "HgN/A
1:00 AM52 °FPassing clouds.12 mph58%29.30 "HgN/A
12:30 AM52 °FPassing clouds.12 mph58%29.30 "HgN/A
12:00 AM52 °FPassing clouds.14 mph58%29.30 "HgN/A
11:30 PM
Tue, Feb 9
50 °FPassing clouds.10 mph62%29.33 "HgN/A
10:30 PM52 °FClear.15 mph58%29.33 "Hg10 mi
10:00 PM52 °FClear.23 mph58%29.33 "Hg10 mi
9:30 PM52 °FClear.20 mph58%29.33 "Hg10 mi
9:00 PM52 °FPassing clouds.16 mph58%29.36 "HgN/A
8:30 PM50 °FPassing clouds.9 mph58%29.39 "HgN/A
8:00 PM48 °FClear.10 mph62%29.39 "Hg10 mi
7:30 PM50 °FClear.16 mph58%29.42 "Hg10 mi
7:00 PM50 °FPassing clouds.18 mph58%29.45 "HgN/A
6:30 PM50 °FPassing clouds.16 mph58%29.45 "HgN/A
6:00 PM50 °FClear.13 mph58%29.45 "Hg10 mi
5:30 PM50 °FClear.8 mph58%29.47 "Hg10 mi
5:00 PM50 °FClear.9 mph58%29.47 "Hg10 mi
4:00 PM52 °FPassing clouds.13 mph50%29.53 "HgN/A
3:30 PM52 °FSunny.16 mph50%29.53 "Hg10 mi
3:00 PM52 °FSunny.20 mph50%29.56 "Hg10 mi
2:30 PM52 °FSunny.23 mph47%29.56 "Hg10 mi
2:00 PM52 °FPassing clouds.21 mph50%29.59 "HgN/A
1:30 PM54 °FPassing clouds.23 mph44%29.59 "HgN/A
1:00 PM52 °FPassing clouds.26 mph47%29.62 "HgN/A
12:30 PM50 °FPassing clouds.26 mph54%29.65 "HgN/A
11:30 AM48 °FScattered clouds.25 mph58%29.65 "HgN/A
11:00 AM48 °FPassing clouds.21 mph62%29.68 "HgN/A
10:30 AM46 °FPassing clouds.23 mph66%29.68 "HgN/A
10:00 AM46 °FScattered clouds.23 mph62%29.68 "HgN/A
Weather by CustomWeather, © 2016

See weather overviewHow to use our weather pages